Location: Cruquius
(52.3348°N, 4.6319°E)
Time: 04:30:51
(UTC+00:00)

Cosmos 372 Rocket - Pass Details

Date: 12 May 2021
Orbit: 738 x 768 km, 74.1° (Epoch: 14 June)

Event Time Altitude Azimuth Distance (km) Brightness Sun altitude
Exits shadow 22:25:48 32° 155° (SSE) 1,253 4.5 -17.6°
Maximum altitude 22:27:37 45° 107° (ESE) 998 4.3 -17.7°
Drops below altitude 10° 22:32:28 10° 35° (NE) 2,259 6.9 -17.9°
Sets 22:34:54 0° 29° (NNE) 3,188 7.9 -18.0°
